EW2835 Weather Reports


Display with metric or nautical units.
time (UTC)temp
F
wind
direction
speed
MPH
gust
MPH
rain 1hr
in
rain 24hr
in
rain mn
in
humidity
%
barometer
mb
20260904131509 75 223 3.0 14.0 0.00 0.02 0.01 71 1004.9
20260904130007 74 290 2.0 11.0 0.00 0.02 0.01 72 1005.2
20260904124506 74 306 5.0 16.0 0.00 0.02 0.01 72 1005.2
20260904123006 73 354 1.0 9.0 0.00 0.02 0.01 73 1005.5
20260904121505 73 290 4.0 18.0 0.00 0.02 0.01 72 1005.8
20260904120005 74 196 4.0 14.0 0.00 0.02 0.01 72 1006.0
20260904114601 73 148 4.0 12.0 0.00 0.02 0.01 72 1006.2
20260904113102 74 166 3.0 15.0 0.00 0.02 0.01 72 1006.5
20260904111556 74 52 4.0 19.0 0.00 0.02 0.01 71 1006.8
20260904110057 74 328 2.0 12.0 0.00 0.02 0.01 72 1007.0
20260904104559 74 200 5.0 19.0 0.00 0.02 0.01 73 1007.4
20260904103052 74 308 3.0 9.0 0.00 0.02 0.01 73 1007.7
20260904101559 72 217 2.0 15.0 0.00 0.02 0.01 76 1008.1
20260904100045 72 76 4.0 12.0 0.00 0.02 0.01 76 1008.3
20260904094544 72 263 3.0 14.0 0.00 0.02 0.01 77 1008.3
20260904093104 71 228 4.0 14.0 0.00 0.02 0.01 77 1008.4
20260904091540 72 159 4.0 13.0 0.00 0.02 0.01 76 1008.6
20260904090041 73 325 3.0 20.0 0.00 0.02 0.01 75 1008.9
20260904084536 72 113 3.0 15.0 0.00 0.02 0.01 75 1009.2
20260904083033 72 290 3.0 19.0 0.00 0.02 0.01 77 1009.2
20260904081530 72 184 4.0 12.0 0.00 0.02 0.01 79 1009.3
20260904080026 69 183 4.0 14.0 0.01 0.02 0.01 82 1009.6
20260904074524 69 160 3.0 12.0 0.01 0.02 0.01 82 1009.7
20260904073023 69 218 3.0 12.0 0.01 0.02 0.01 82 1010.1
20260904071518 67 229 5.0 10.0 0.01 0.02 0.01 83 1010.4
20260904070035 67 175 3.0 12.0 0.00 0.01 0.00 83 1010.5
20260904064513 67 173 3.0 10.0 0.00 0.01 0.00 84 1010.6
20260904063013 65 189 0.0 9.0 0.00 0.01 0.00 87 1010.8
20260904061505 65 204 2.0 8.0 0.00 0.01 0.00 87 1011.1
20260904060003 64 170 2.0 6.0 0.00 0.01 0.00 87 1011.3
20260904054600 64 204 2.0 7.0 0.00 0.01 0.00 88 1011.2
20260904053055 64 202 3.0 10.0 0.00 0.01 0.00 88 1011.8
20260904051553 63 176 1.0 7.0 0.00 0.01 0.00 88 1012.0
20260904050051 63 192 1.0 9.0 0.00 0.01 0.00 89 1011.9
20260904044550 63 202 1.0 10.0 0.00 0.01 0.00 89 1011.8
20260904043048 63 185 2.0 9.0 0.00 0.01 0.00 90 1011.7
20260904041552 63 162 2.0 4.0 0.00 0.01 0.00 90 1012.2
20260904040024 63 198 1.0 7.0 0.00 0.01 0.00 90 1012.4
20260904034540 62 152 2.0 6.0 0.00 0.01 0.00 91 1012.7
20260904033019 62 189 1.0 5.0 0.00 0.01 0.00 90 1012.8
20260904031518 62 190 0.0 3.0 0.00 0.01 0.00 90 1013.0
20260904030017 62 177 0.0 2.0 0.00 0.01 0.00 89 1013.0
20260904024516 62 178 0.0 3.0 0.00 0.01 0.00 89 1013.1
20260904023015 62 182 0.0 4.0 0.00 0.01 0.00 89 1013.0
20260904021513 62 172 0.0 3.0 0.00 0.01 0.00 89 1013.0
20260904020012 62 221 0.0 1.0 0.00 0.01 0.00 90 1013.3
20260904014511 62 155 0.0 3.0 0.00 0.01 0.00 90 1013.4
20260904013011 62 187 0.0 3.0 0.00 0.01 0.00 90 1013.5
20260904011532 62 208 0.0 3.0 0.00 0.01 0.00 90 1013.4
20260904010009 62 156 0.0 4.0 0.00 0.01 0.00 90 1013.4
20260904004508 62 182 0.0 4.0 0.00 0.01 0.00 91 1013.4
20260904003006 62 264 0.0 3.0 0.00 0.01 0.00 91 1013.5
20260904001503 62 185 0.0 6.0 0.00 0.01 0.00 91 1013.5
20260904000001 62 241 0.0 3.0 0.00 0.01 0.00 91 1013.7
20260903234601 62 200 0.0 4.0 0.00 0.01 0.00 91 1013.8
20260903233059 61 265 0.0 5.0 0.00 0.01 0.00 90 1013.8
20260903231558 61 175 0.0 4.0 0.00 0.01 0.00 90 1014.0
20260903230055 61 220 0.0 5.0 0.00 0.01 0.00 89 1014.1
20260903224552 62 171 0.0 2.0 0.00 0.01 0.00 88 1014.3
20260903223050 62 197 0.0 2.0 0.00 0.01 0.00 87 1014.2
20260903221548 63 192 0.0 3.0 0.00 0.01 0.00 86 1014.2
20260903220053 63 189 1.0 4.0 0.00 0.01 0.00 86 1014.3
20260903214545 64 178 1.0 4.0 0.00 0.01 0.01 85 1014.1
20260903213054 64 223 1.0 3.0 0.00 0.01 0.01 84 1014.1
20260903211551 64 223 0.0 4.0 0.00 0.01 0.01 84 1014.1
20260903210052 65 165 1.0 4.0 0.00 0.01 0.01 84 1014.1
20260903204544 65 33 1.0 13.0 0.00 0.01 0.01 84 1014.1
20260903203104 65 310 1.0 7.0 0.00 0.01 0.01 84 1014.0
20260903201541 65 171 2.0 10.0 0.00 0.01 0.01 84 1013.9
20260903200040 65 251 1.0 9.0 0.00 0.01 0.01 84 1014.1
20260903194536 64 225 2.0 8.0 0.00 0.01 0.01 85 1014.1
20260903193023 64 167 1.0 9.0 0.00 0.01 0.01 85 1013.8
20260903191515 64 130 0.0 8.0 0.00 0.01 0.01 87 1014.0
20260903190012 64 219 2.0 4.0 0.00 0.01 0.01 87 1014.0
20260903184512 64 228 1.0 3.0 0.00 0.01 0.01 87 1014.1
20260903183012 64 178 0.0 2.0 0.00 0.01 0.01 87 1014.1
20260903181514 64 263 0.0 3.0 0.00 0.01 0.01 88 1014.1
20260903180019 65 284 0.0 6.0 0.00 0.01 0.01 89 1014.0
20260903174509 65 204 0.0 2.0 0.00 0.01 0.01 90 1014.0
20260903173009 65 294 0.0 1.0 0.00 0.01 0.01 90 1013.9
20260903171508 66 274 0.0 3.0 0.00 0.01 0.01 89 1013.9
20260903170013 66 286 0.0 0.0 0.00 0.01 0.01 89 1013.5
20260903164509 67 305 0.0 1.0 0.00 0.01 0.01 88 1013.6
20260903163012 67 305 0.0 0.0 0.01 0.01 0.01 87 1013.5
20260903160037 68 199 0.0 0.0 0.01 0.01 0.01 85 1013.5
20260903154546 68 234 0.0 5.0 0.01 0.01 0.01 81 1013.9
20260903153036 70 254 1.0 13.0 0.00 0.00 0.00 73 1014.4
20260903151534 72 223 1.0 6.0 0.00 0.00 0.00 65 1013.7
20260903150034 72 161 3.0 9.0 0.00 0.00 0.00 64 1013.6
20260903144542 72 184 4.0 19.0 0.00 0.00 0.00 64 1013.8
20260903143043 71 263 0.0 10.0 0.00 0.00 0.00 65 1013.7
20260903141529 71 302 0.0 8.0 0.00 0.00 0.00 65 1013.9
20260903140036 71 162 1.0 5.0 0.00 0.00 0.00 65 1014.0
20260903134529 71 240 2.0 14.0 0.00 0.00 0.00 64 1014.1
20260903133028 73 288 2.0 12.0 0.00 0.00 0.00 60 1014.1